2024/01/28 00:00:00,53.8, 1.6
2024/01/28 00:10:00,53.5, 2.1
2024/01/28 00:20:00,53.3, 1.9
2024/01/28 00:30:00,53.3, 2.1
2024/01/28 00:40:00,53.2, 1.6
2024/01/28 00:50:00,53.2, 1.8
2024/01/28 01:00:00,53.1, 1.8
2024/01/28 01:10:00,53.1, 1.6
2024/01/28 01:20:00,53.0, 1.6
2024/01/28 01:30:00,52.9, 1.6
2024/01/28 01:40:00,52.9, 1.8
2024/01/28 01:50:00,52.6, 1.7
2024/01/28 02:00:00,52.5, 1.7
2024/01/28 02:10:00,52.4, 1.6
2024/01/28 02:20:00,52.3, 1.5
2024/01/28 02:30:00,52.3, 1.6
2024/01/28 02:40:00,52.2, 1.7
2024/01/28 02:50:00,51.9, 2.6
2024/01/28 03:00:00,51.5, 2.0
2024/01/28 03:10:00,51.5, 2.3
2024/01/28 03:20:00,51.5, 1.6
2024/01/28 03:30:00,51.7, 1.5
2024/01/28 03:40:00,51.7, 1.7
2024/01/28 03:50:00,51.6, 2.0
2024/01/28 04:00:00,51.6, 1.7
2024/01/28 04:10:00,51.6, 1.6
2024/01/28 04:20:00,51.5, 1.5
2024/01/28 04:30:00,51.5, 1.5
2024/01/28 04:40:00,51.5, 1.6
2024/01/28 04:50:00,51.3, 1.6
2024/01/28 05:00:00,51.3, 1.7
2024/01/28 05:10:00,51.3, 1.8
2024/01/28 05:20:00,51.2, 1.9
2024/01/28 05:30:00,51.1, 1.7
2024/01/28 05:40:00,51.1, 1.7
2024/01/28 05:50:00,51.0, 1.9
2024/01/28 06:00:00,51.0, 1.6
2024/01/28 06:10:00,50.9, 1.7
2024/01/28 06:20:00,50.8, 1.6
2024/01/28 06:30:00,79.5, 1.7
2024/01/28 06:40:00,85.1, 1.6
2024/01/28 06:50:00,90.8, 1.6
2024/01/28 07:00:00,67.6, 1.7
2024/01/28 07:10:00,67.5, 1.7
2024/01/28 07:20:00,50.1, 1.8
2024/01/28 07:30:00,50.0, 2.1
2024/01/28 07:40:00,49.8, 1.9
2024/01/28 07:50:00,49.5, 1.8
2024/01/28 08:00:00,49.2, 2.2
2024/01/28 08:10:00,48.9, 2.6
2024/01/28 08:20:00,48.8, 3.3
2024/01/28 08:30:00,48.6, 4.1
2024/01/28 08:40:00,72.1, 3.7
2024/01/28 08:50:00,---, 4.5
2024/01/28 09:00:00,48.6, 4.8
2024/01/28 09:10:00,48.1, 3.3
2024/01/28 09:20:00,47.9, 4.6
2024/01/28 09:30:00,47.6, 3.9
2024/01/28 09:40:00,47.7, 3.8
2024/01/28 09:50:00,47.7, 3.5
2024/01/28 10:00:00,47.5, 3.8
2024/01/28 10:10:00,47.2, 3.8
2024/01/28 10:20:00,47.2, 3.1
2024/01/28 10:30:00,47.2, 3.5
2024/01/28 10:40:00,47.2, 3.7
2024/01/28 10:50:00,47.3, 3.2
2024/01/28 11:00:00,47.4, 3.1
2024/01/28 11:10:00,47.4, 3.9
2024/01/28 11:20:00,47.0, 3.9
2024/01/28 11:30:00,46.8, 3.2
2024/01/28 11:40:00,46.7, 3.1
2024/01/28 11:50:00,46.2, 4.0
2024/01/28 12:00:00,46.1, 3.8
2024/01/28 12:10:00,46.1, 3.7
2024/01/28 12:20:00,45.7, 4.3
2024/01/28 12:30:00,45.7, 3.6
2024/01/28 12:40:00,46.1, 3.7
2024/01/28 12:50:00,46.2, 3.3
2024/01/28 13:00:00,46.0, 3.9
2024/01/28 13:10:00,45.7, 3.8
2024/01/28 13:20:00,46.0, 3.7
2024/01/28 13:30:00,46.2, 3.5
2024/01/28 13:40:00,46.2, 3.6
2024/01/28 13:50:00,45.3, 5.6
2024/01/28 14:00:00,44.8, 6.8
2024/01/28 14:10:00,44.8, 6.2
2024/01/28 14:20:00,45.1, 4.0
2024/01/28 14:30:00,44.3, 6.7
2024/01/28 14:40:00,44.5, 7.3
2024/01/28 14:50:00,43.9, 6.7
2024/01/28 15:00:00,44.7, 5.5
2024/01/28 15:10:00,44.6, 5.7
2024/01/28 15:20:00,44.8, 5.4
2024/01/28 15:30:00,44.7, 5.1
2024/01/28 15:40:00,44.3, 4.6
2024/01/28 15:50:00,44.5, 4.2
2024/01/28 16:00:00,44.5, 3.9
2024/01/28 16:10:00,44.4, 2.9
2024/01/28 16:20:00,44.5, 2.5
2024/01/28 16:30:00,44.6, 2.6
2024/01/28 16:40:00,44.5, 2.5
2024/01/28 16:50:00,---, 2.0
2024/01/28 17:00:00,79.1, 2.1
2024/01/28 17:10:00,---, 2.2
2024/01/28 17:20:00,44.4, 2.2
2024/01/28 17:30:00,44.3, 2.2
2024/01/28 17:40:00,44.2, 1.9
2024/01/28 17:50:00,44.3, 1.7
2024/01/28 18:00:00,44.1, 1.5
2024/01/28 18:10:00,44.1, 1.2
2024/01/28 18:20:00,44.1, 1.1
2024/01/28 18:30:00,44.0, 1.2
2024/01/28 18:40:00,43.8, 1.2
2024/01/28 18:50:00,43.8, 1.5
2024/01/28 19:00:00,43.9, 1.6
2024/01/28 19:10:00,43.8, 1.7
2024/01/28 19:20:00,43.7, 1.5
2024/01/28 19:30:00,43.6, 1.5
2024/01/28 19:40:00,43.3, 1.5
2024/01/28 19:50:00,43.1, 1.4
2024/01/28 20:00:00,66.0, 1.4
2024/01/28 20:10:00,66.0, 1.3
2024/01/28 20:20:00,42.8, 1.2
2024/01/28 20:30:00,---, 1.1
2024/01/28 20:40:00,60.1, 1.1
2024/01/28 20:50:00,42.6, 0.9
2024/01/28 21:00:00,42.5, 1.1
2024/01/28 21:10:00,42.4, 0.7
2024/01/28 21:20:00,42.4, 0.7
2024/01/28 21:30:00,42.3, 0.5
2024/01/28 21:40:00,42.3, 0.5
2024/01/28 21:50:00,42.1, 0.6
2024/01/28 22:00:00,42.1, 0.4
2024/01/28 22:10:00,42.1, 0.3
2024/01/28 22:20:00,42.0, 0.3
2024/01/28 22:30:00,41.9, 0.3
2024/01/28 22:40:00,41.9, 0.6
2024/01/28 22:50:00,42.0, 0.5
2024/01/28 23:00:00,42.0, 0.3
2024/01/28 23:10:00,41.9, 0.5
2024/01/28 23:20:00,41.9, 0.3
2024/01/28 23:30:00,41.8, 0.4
2024/01/28 23:40:00,41.8, 0.2
2024/01/28 23:50:00,41.7,-0.0
